Weather in Stara Vodolaha

Ukraine / Kharkiv Region     49°47′23″N   35°50′03″E
temp.,
°C
wind,
m/s
gust,
m/s
humid.,
%
clouds,
%
prec.,
mm/h
press.,
hPa
HPBL,
m
16 may, sun
sun1600:00+15sw3371100 0.0 101220
03:00+15s237114 0.0 101338
06:00+14sse227636 0.0 101313
09:00+20ese225836 0.0 1013384
12:00+23e3346100 0.0 10121407
15:00+24e344327 0.0 10111613
18:00+24ene46595 0.0 1010659
21:00+17ne4128398 0.7 1009234
17 may, mon
mon1700:00+17ne4993100 0.3 1008177
03:00+15ene4128895 0.3 1006258
06:00+14e41184100 0.0 1005212
09:00+18e71568100 0.0 1004561
12:00+23se710560 0.1 10041117
15:00+25se81060100 0.1 10041477
18:00+24sse696552 0.0 10041110
21:00+19se5138263 0.0 1005362
18 may, tue
tue1800:00+17ssw61378100 0.0 1006711
03:00+13s499399 0.0 1007256
06:00+14sse4793100 0.0 1008239
09:00+17ssw467898 0.0 1008352
12:00+16sse4686100 0.1 1008306
15:00+21se455933 0.4 10061288
18:00+20sse5772100 1.0 1005862
21:00+15s3695100 7.4 1005223
19 may, wed
wed1900:00+14s4996100 5.7 1004357
03:00+14s599584 7.0 1004441
06:00+12s51095100 0.0 1004503
09:00+13ssw588752 0.1 1005682
12:00+16s6867100 0.4 10051439
15:00+14s698246 1.9 1005912
18:00+12ssw7109396 1.8 1005659
21:00+12sw71294100 2.3 1006773
20 may, thu
thu2000:00+11wsw71293100 0.4 1008811
03:00+11wsw7129098 0.6 1009771
06:00+10sw7139491 0.1 1010631
09:00+14wsw7107495 0.1 10111099
12:00+18wsw685996 0.0 10121455
15:00+19sw4550100 0.0 10121748
18:00+19sse1353100 0.0 10111487
21:00+15ene466962 0.0 101189